Reading, PA

4:45 PM EST on December 16, 2017 (GMT -0500)
Reading Regional-Spaatz

Weather History for KRDG - January, 2014

Change the Weather History Date:

Wednesday, January 22, 2014

  Actual Average Record
Temperature  
Mean Temperature 9 °F 29 °F  
Max Temperature 15 °F 38 °F 67 °F (1959)
Min Temperature 2 °F 21 °F -12 °F (1984)
Degree Days  
Heating Degree Days 56 36  
Month to date heating degree days 832 777  
Since 1 July heating degree days 2820 2808  
Cooling Degree Days 0 0  
Month to date cooling degree days 0 0  
Year to date cooling degree days 0 0  
Moisture  
Dew Point -6 °F    
Average Humidity 58    
Maximum Humidity 69    
Minimum Humidity 46    
Precipitation  
Precipitation T in 0.08 in 1.11 in (1891)
Month to date precipitation 3.38 2.27  
Year to date precipitation 3.38 2.27  
Sea Level Pressure  
Sea Level Pressure 29.98 in    
Wind  
Wind Speed 11 mph (NW)    
Max Wind Speed 22 mph    
Max Gust Speed 29 mph    
Visibility 10 miles    
Events      
T = Trace of Precipitation, MM = Missing Value Source: NWS Daily Summary

Daily Weather History Graph

Daily Weather History Graph

Search for Another Location

Airport or City:

Trip Planner

Search our weather history database for the weather conditions in past years. The results will help you decide how hot, cold, wet, or windy it might be!

Date:

Astronomy

Jan. 22, 2014 Rise Set
Actual Time 7:21 AM EST 5:10 PM EST
Civil Twilight 6:51 AM EST 5:39 PM EST
Nautical Twilight 6:18 AM EST 6:12 PM EST
Astronomical Twilight 5:46 AM EST 6:45 PM EST
Moon 11:41 PM EST (1/22) 10:19 AM EST (1/22)
Length of Visible Light 10h 47m
Length of Day
9h 49m
Waning Gibbous, 65% of the Moon is Illuminated
Jan 22
Waning Gibbous
Jan 24
Last Quarter
Jan 30
New
Feb 6
First Quarter
Feb 14
Full

Hourly Weather History & Observations

Time (EST) Temp. Windchill Dew Point Humidity Pressure Visibility Wind Dir Wind Speed Gust Speed Precip Events Conditions
12:54 AM 6.1 °F -10.9 °F -7.1 °F 55% 29.93 in 10.0 mi NNW 13.8 mph - N/A   Clear
1:54 AM 5.0 °F -14.2 °F -8.0 °F 55% 29.93 in 10.0 mi NNW 17.3 mph - N/A   Clear
2:54 AM 3.9 °F -14.3 °F -8.0 °F 58% 29.93 in 10.0 mi NNW 15.0 mph - N/A   Clear
3:54 AM 3.9 °F -13.0 °F -9.0 °F 55% 29.94 in 10.0 mi NNW 12.7 mph - N/A   Clear
4:54 AM 3.9 °F -11.3 °F -9.0 °F 55% 29.94 in 10.0 mi NNW 10.4 mph 18.4 mph N/A   Clear
5:54 AM 3.0 °F -11.5 °F -9.0 °F 57% 29.94 in 10.0 mi NNW 9.2 mph - N/A   Clear
6:54 AM 1.9 °F -14.7 °F -9.0 °F 60% 29.95 in 10.0 mi NNW 11.5 mph - N/A   Clear
7:54 AM 1.9 °F -14.7 °F -9.9 °F 58% 29.97 in 10.0 mi NNW 11.5 mph - N/A   Clear
8:54 AM 3.9 °F -15.6 °F -9.0 °F 55% 29.98 in 10.0 mi North 17.3 mph - N/A   Clear
9:54 AM 6.1 °F -12.8 °F -8.0 °F 53% 30.00 in 10.0 mi NNW 17.3 mph 28.8 mph N/A   Clear
10:54 AM 8.1 °F -9.0 °F -8.0 °F 48% 29.98 in 10.0 mi NNW 15.0 mph - N/A   Clear
11:54 AM 10.0 °F -5.9 °F -6.0 °F 48% 29.96 in 10.0 mi NNW 13.8 mph 26.5 mph N/A   Clear
12:54 PM 12.0 °F -3.4 °F -5.1 °F 46% 29.95 in 10.0 mi NW 13.8 mph - 0.00 in   Clear
1:54 PM 12.9 °F -2.2 °F -4.0 °F 47% 29.94 in 10.0 mi NW 13.8 mph 24.2 mph N/A   Clear
2:54 PM 14.0 °F -1.4 °F -2.9 °F 47% 29.95 in 10.0 mi WNW 15.0 mph - N/A   Clear
3:54 PM 14.0 °F -1.4 °F -2.9 °F 47% 29.97 in 10.0 mi WNW 15.0 mph - N/A   Clear
4:54 PM 12.9 °F -2.8 °F -4.0 °F 47% 29.98 in 10.0 mi WNW 15.0 mph - N/A   Clear
5:54 PM 10.0 °F -3.7 °F -5.1 °F 51% 30.01 in 10.0 mi NW 10.4 mph - N/A   Clear
6:54 PM 10.9 °F 1.4 °F -5.1 °F 49% 30.03 in 10.0 mi WNW 5.8 mph - N/A   Clear
7:54 PM 10.0 °F 1.8 °F -5.1 °F 51% 30.04 in 10.0 mi West 4.6 mph - N/A   Clear
8:54 PM 7.0 °F - -2.9 °F 64% 30.05 in 10.0 mi Calm Calm - N/A   Clear
9:54 PM 5.0 °F -4.1 °F -5.1 °F 63% 30.06 in 10.0 mi West 4.6 mph - N/A   Clear
10:54 PM 6.1 °F -0.9 °F -5.1 °F 60% 30.06 in 10.0 mi WNW 3.5 mph - N/A   Partly Cloudy
11:54 PM 6.1 °F - -5.1 °F 60% 30.08 in 10.0 mi Calm Calm - N/A   Overcast